Location: Pine Mountain Observatory
(43.7910°N, 120.9377°W)
Time: 03:44:45
(UTC-07:00)

Daily predictions for brighter satellites

Satellite Brightness Start Highest point End
(mag) Time Altitude Azimuth Time Altitude Azimuth Time Altitude Azimuth
Meteor 1-4 Rocket 4.3 00:01:37 10° NW 00:04:17 24° W 00:04:17 24° W
ALOS 2 2.8 00:15:08 59° ENE 00:15:08 59° ENE 00:19:25 10° N
Cosmos 2360 Rocket 4.4 00:14:50 10° N 00:18:50 19° NE 00:22:48 10° E
Cosmos 1535 Rocket 4.4 00:12:52 10° N 00:19:01 75° E 00:20:16 57° SSE
Cosmos 1980 Rocket 2.0 00:14:57 10° NNW 00:20:38 79° WSW 00:21:21 67° S
Cosmos 1953 Rocket 3.7 00:22:14 69° ENE 00:22:14 69° ENE 00:26:24 10° NNE
Cosmos 1805 4.0 00:18:49 10° NNW 00:22:01 49° NW 00:22:01 49° NW
Cosmos 1707 4.3 00:25:41 28° ENE 00:25:41 28° ENE 00:28:07 10° NNE
ARGOS Delta rocket 4.1 00:20:20 10° NNE 00:25:33 67° E 00:25:56 64° SE
Cosmos 1825 Rocket 3.6 00:26:20 70° NW 00:26:20 70° NW 00:30:26 10° N
Cosmos 2322 Rocket 2.9 00:23:01 10° NNW 00:28:31 47° ENE 00:30:12 36° ESE
Timation 2 Rocket 4.2 00:28:40 39° SW 00:31:06 68° WNW 00:37:15 10° NNE
USA 32 4.3 00:37:53 52° ESE 00:38:11 53° E 00:43:18 10° NNE
Orbus 7S? 4.0 00:33:15 10° NW 00:37:51 52° WNW 00:37:51 52° WNW
CZ-4B R/B 3.7 00:44:34 19° NE 00:44:34 19° NE 00:46:06 10° NNE
CZ-2C R/B 3.1 00:44:56 66° SW 00:45:26 70° WSW 00:51:02 10° NNW
USA 267 3.7 00:40:30 10° NE 00:46:56 61° NNW 00:53:21 10° WSW
Cosmos 1953 3.4 00:43:11 10° NNW 00:46:24 40° WNW 00:46:24 40° WNW
SeaSat 1 2.9 00:49:17 47° WSW 00:49:17 47° WSW 00:53:48 10° NW
Cosmos 2082 Rocket 3.9 00:48:26 14° WSW 00:52:19 28° NW 00:57:11 10° N
Cosmos 389 Rocket 4.3 00:49:05 10° NNW 00:51:03 27° NW 00:51:03 27° NW
NOSS 3-1 (C) 4.1 00:48:47 10° NW 00:56:19 75° NE 01:00:34 32° SE
Geosat 3.8 00:55:23 10° NNE 01:00:26 77° ESE 01:00:33 77° SE
Cosmos 972 Rocket 3.9 00:56:43 10° NNW 01:02:03 68° WSW 01:02:06 68° WSW
Meteor 2-15 4.5 01:02:32 56° SE 01:03:32 65° E 01:09:32 10° NNE
ATLAS CENTAUR R/B 2.3 01:01:18 10° NNW 01:04:15 40° NNE 01:04:15 40° NNE
CZ-2C R/B 3.1 01:01:19 10° N 01:06:48 55° WNW 01:08:00 46° WSW
Cosmos 1934 Rocket 4.2 01:02:56 10° NNW 01:09:09 57° W 01:10:22 49° SW
Cosmos-2242 3.6 01:06:35 10° NNW 01:10:14 50° WNW 01:10:14 50° WNW
Meteor 2-5 Rocket 3.7 01:12:51 65° S 01:13:48 90° WNW 01:19:47 10° N
H-2A R/B 3.7 01:10:25 10° NNE 01:13:44 33° E 01:13:44 33° E
Lacrosse 5 rocket 2.9 01:11:00 10° NW 01:15:24 39° NNE 01:18:04 20° E
SL-16 R/B 2.0 01:11:37 10° NNW 01:17:19 77° WSW 01:17:50 70° SSW
Cosmos 494 Rocket 3.9 01:17:26 69° WSW 01:17:50 73° WNW 01:23:00 10° NNE
USA 229 DEB 4.2 01:13:12 10° NW 01:19:53 43° WSW 01:20:38 42° SW
USA 229 4.2 01:13:18 10° NW 01:19:59 44° WSW 01:20:45 42° SW
USA 234 3.1 01:20:16 50° SSE 01:22:00 71° SW 01:28:33 10° NW
Meteor 2-15 Rocket 4.4 01:23:02 60° SSE 01:24:09 79° E 01:30:15 10° N
NOSS 3-1 (A) 4.0 01:19:21 10° NW 01:26:57 85° NE 01:31:27 31° SE
Cosmos 2221 3.3 01:28:00 10° N 01:32:06 43° ENE 01:32:13 43° E
ISS -1.1 01:31:37 10° NW 01:34:10 20° N 01:36:44 10° NE
Cosmos 1842 Rocket 3.7 01:31:28 10° NNW 01:35:36 66° WNW 01:35:36 66° WNW
Lacrosse 5 2.2 01:36:31 53° ESE 01:36:31 53° ESE 01:41:02 10° NE
Cosmos 2322 4.2 01:32:02 10° NNW 01:37:37 56° ENE 01:39:47 35° ESE
Cosmos 2098 Rocket 4.0 01:36:58 10° NNW 01:40:32 39° W 01:40:32 39° W
Cosmos 1833 4.2 01:41:43 57° SE 01:42:22 62° ESE 01:47:58 10° NNE
Cosmos 2084 Rocket 4.4 01:46:11 35° E 01:46:11 35° E 01:48:55 10° NE
Cosmos 1302 Rocket 4.2 01:40:32 10° NNW 01:45:40 54° WSW 01:45:40 54° WSW
Landsat 5 4.0 01:48:07 53° WNW 01:48:07 53° WNW 01:52:11 10° NNW
Cosmos 1727 Rocket 4.3 01:47:15 45° WSW 01:48:42 55° WNW 01:54:49 10° N
In-Cosmos 22 4.0 01:48:21 65° SSE 01:49:07 78° E 01:54:35 10° NNE
COSMOS 2428 3.9 01:44:20 10° NNW 01:49:45 40° ENE 01:53:57 16° ESE
Cosmos 2251 Rocket 4.3 01:50:14 37° W 01:51:27 43° WNW 01:56:34 10° N
Cosmos 2219 4.3 01:52:43 28° ESE 01:53:45 30° ESE 01:58:34 10° NE
Cosmos 1908 3.7 01:56:11 10° N 01:59:58 54° ENE 01:59:58 54° ENE
Meteor 2-17 Rocket 4.3 01:54:43 10° N 02:00:50 86° W 02:02:26 53° S
Cosmos 1076 Rocket 3.8 02:01:28 57° E 02:01:33 57° E 02:05:48 10° NNE
Cosmos 1992 Rocket 4.1 01:56:52 10° NNW 02:02:06 70° ENE 02:03:31 47° SE
Cosmos 2360 Rocket 2.1 01:57:51 10° NNW 02:03:33 81° WSW 02:04:43 57° S
Cosmos 1980 Rocket 4.4 02:02:38 10° W 02:03:07 10° W 02:03:07 10° W
Meteor 1-24 Rocket 4.2 02:08:29 43° WSW 02:09:56 52° WNW 02:15:50 10° N
Cosmos 1725 Rocket 4.3 02:03:45 10° N 02:10:03 62° E 02:12:56 33° SSE
Cosmos 1356 Rocket 4.4 02:11:22 34° ESE 02:11:38 34° E 02:15:18 10° NNE
Cosmos 2322 Rocket 3.3 02:07:34 10° NW 02:11:59 27° W 02:11:59 27° W
Okean 3 Rocket 3.5 02:12:35 73° WSW 02:12:47 75° W 02:17:21 10° N
Cosmos 1000 Rocket 4.5 02:12:06 49° SSW 02:13:52 75° W 02:20:14 10° N
PSLV R/B 3.3 02:11:30 10° NNE 02:15:47 89° WNW 02:15:54 85° SSW
CZ-4B R/B 4.1 02:18:09 11° NW 02:18:09 11° NW 02:18:21 10° NW
SL-08 R/B 4.4 02:11:28 10° N 02:17:35 83° E 02:19:50 42° SSE
Cosmos 2173 Rocket 4.1 02:14:13 10° NNW 02:20:12 58° W 02:21:37 46° SW
Cosmos 2333 Rocket 3.6 02:17:55 10° N 02:23:10 36° NE 02:28:22 10° ESE
Cosmos 1184 Rocket 3.6 02:24:17 49° N 02:24:17 49° N 02:26:50 10° N
Resurs 1-4 Rocket 4.1 02:20:50 10° NE 02:24:37 20° E 02:27:46 12° SE
CZ-2D R/B 4.0 02:25:15 10° NE 02:29:07 20° E 02:32:11 13° SE
SL-8 R/B 4.5 02:37:46 35° SE 02:37:46 35° SE 02:42:05 10° ENE
Cosmos 1408 Rocket 3.4 02:40:13 65° SSW 02:40:49 81° W 02:45:12 10° N
Cosmos 1340 Rocket 3.3 02:41:43 43° WNW 02:41:44 43° WNW 02:45:31 10° N
SL-16 R/B 3.4 02:38:04 10° SE 02:43:52 46° ENE 02:49:45 10° N
Cosmos 2297 Rocket 4.1 02:40:46 13° SE 02:43:59 20° E 02:47:59 10° NE
Cosmos 1766 Rocket 3.5 02:43:37 60° SW 02:44:14 71° W 02:48:38 10° N
Cosmos 1674 3.2 02:47:37 44° W 02:47:39 44° WNW 02:51:23 10° N
H-2A R/B 4.1 02:46:23 10° NNW 02:49:39 22° WNW 02:50:21 22° W
Cosmos 2219 Rocket 2.5 02:44:20 10° NNW 02:50:02 67° ENE 02:55:32 11° SE
Cosmos 1328 4.1 02:50:34 47° SE 02:51:23 59° E 02:55:19 10° NNE
Cosmos 1626 4.4 02:49:54 14° SE 02:51:45 19° E 02:54:28 10° NE
Meteor 1-21 Rocket 4.5 02:50:09 39° SW 02:52:12 61° WNW 02:58:03 10° N
Lacrosse 5 rocket 2.3 02:50:22 10° WNW 02:53:40 35° W 02:53:40 35° W
NOSS 0 Rocket 4.3 02:52:10 10° NNW 02:58:21 65° ENE 03:04:31 10° SE
Meteor 2-2 Rocket 4.1 02:53:08 10° NNW 02:58:49 84° W 03:01:36 31° S
Cosmos 1300 2.6 02:57:45 10° N 03:01:37 89° WSW 03:02:23 56° S
Cosmos 2237 Rocket 3.1 02:56:53 10° NNW 03:02:23 49° ENE 03:07:48 10° SE
Cosmos 1140 Rocket 4.4 03:00:48 24° SSE 03:03:25 42° ESE 03:08:18 10° NNE
Cosmos 1515 Rocket 3.6 02:59:25 10° N 03:03:52 79° E 03:05:45 34° SSE
Cosmos 1743 Rocket 3.5 03:04:41 44° S 03:06:05 90° WNW 03:10:33 10° N
Cosmos 2221 4.4 03:06:37 10° NW 03:09:05 16° W 03:09:05 16° W
IRS-P3 4.1 03:05:52 10° N 03:11:11 71° WNW 03:13:29 34° SSW
CBERS-1 3.9 03:06:12 10° NNE 03:11:20 82° WNW 03:13:33 35° SSW
ISS -1.7 03:08:27 10° NW 03:11:23 29° NNE 03:14:19 10° E
Helios 1A Rocket 4.1 03:07:58 10° N 03:11:37 30° WNW 03:12:33 27° W
NOSS 2-1 (D) 4.5 03:17:05 26° SSE 03:18:21 32° ESE 03:22:04 10° NE
ATLAS 2AS CENTAUR R/B 2.9 03:10:18 10° NW 03:18:22 80° WSW 03:25:48 10° SSE
Cosmos 1726 2.6 03:15:25 10° NNW 03:18:59 41° W 03:19:17 40° WSW
NPP 3.7 03:13:54 10° N 03:19:15 66° WNW 03:21:49 31° SW
Lacrosse 5 3.1 03:15:42 16° W 03:19:16 36° NNW 03:23:57 10° NE
Cosmos 2227 Rocket 2.8 03:17:14 23° S 03:20:33 51° ESE 03:26:02 10° NE
ARIANE 5 R/B 3.0 03:16:04 10° NNE 03:21:07 55° E 03:24:24 21° S
Cosmos 1954 Rocket 4.0 03:20:53 30° SSW 03:23:36 80° ESE 03:28:52 10° NNE
NOSS 3-3 (A) 4.0 03:22:59 28° SSW 03:26:26 77° ESE 03:33:07 10° NE
Cosmos 2228 Rocket 3.5 03:22:13 10° NNW 03:26:30 45° W 03:27:55 34° SW
NOSS 3-3 (C) 4.0 03:23:04 28° SSW 03:26:32 76° ESE 03:33:13 10° NE
Cosmos 407 Rocket 3.8 03:24:25 30° SW 03:26:44 55° WNW 03:31:49 10° NNE
Cosmos 2058 2.9 03:27:07 31° S 03:29:03 79° E 03:33:10 10° N
Cosmos 1242 Rocket 4.0 03:29:42 10° NW 03:32:17 22° W 03:32:17 22° W
Meteor 1-27 4.2 03:26:44 10° NNW 03:32:34 85° W 03:37:43 14° S
COSMOS 2428 3.4 03:28:50 10° NW 03:33:54 33° WSW 03:35:54 26° SW
Meteor 1-11 4.2 03:30:47 24° S 03:34:21 87° W 03:40:08 10° N
ADEOS Rocket 3.5 03:27:55 10° NNE 03:35:14 89° WNW 03:41:15 18° SSW
Cosmos 2219 3.9 03:34:38 23° WSW 03:37:43 42° WNW 03:43:03 10° NNE
Cosmos 676 Rocket 4.2 03:35:30 27° SW 03:38:20 64° WNW 03:43:37 10° NNE
ERS-1 4.5 03:33:34 10° NNE 03:38:41 85° WNW 03:41:58 23° SSW
NOSS 2-1 (E) 3.9 03:39:20 26° S 03:41:10 50° ESE 03:45:19 10° NE
USA 102 3.0 03:40:10 10° NNE 03:41:30 60° NNE 03:41:30 60° NNE
Cosmos 1455 2.6 03:41:40 10° N 03:45:31 65° E 03:49:22 10° SSE
ATLAS 3B CENTAUR R/B 4.1 03:39:34 18° SW 03:46:06 27° SSW 03:51:20 10° SE
Cosmos 2360 Rocket 4.2 03:45:11 10° W 03:46:27 11° W 03:46:27 11° W
Cosmos 2082 3.8 03:43:59 20° SSW 03:47:55 73° ESE 03:53:33 10° NNE
Spot 4 Rocket 4.1 03:43:27 10° N 03:48:35 70° WNW 03:52:00 21° SSW
Cosmos 1703 3.2 03:46:40 25° SSW 03:48:49 80° W 03:52:45 10° N
SL-08 R/B 4.4 03:49:16 23° SW 03:50:59 28° W 03:55:16 10° NW
Cosmos 1072 Rocket 4.4 03:45:12 10° NNW 03:51:19 74° W 03:57:26 10° S
CZ-2D R/B 4.2 03:48:16 10° NNE 03:52:10 47° E 03:55:51 11° S
Lacrosse 4 Rocket 3.9 03:51:16 10° SE 03:53:33 15° ESE 03:55:51 10° ENE
Cosmos 2208 Rocket 4.2 03:48:57 10° NNW 03:54:09 72° ENE 03:59:22 10° SSE
Cosmos 1151 Rocket 3.7 03:53:31 10° NNW 03:57:27 35° W 03:59:36 22° SW
Cosmos 2151 3.6 03:56:40 23° SW 03:58:45 40° WNW 04:02:45 10° N
MOZ.5/SAFIR/RUBIN 5/SL-8 3.9 03:55:45 10° SSE 04:00:30 81° ENE 04:05:18 10° N
UNKNOWN OBJECT B 2.9 04:00:07 10° NNE 04:04:11 79° ESE 04:07:35 14° S
Cosmos 1707 Rocket 3.7 03:59:55 10° N 04:04:17 75° E 04:08:39 10° SSE
Resurs 1-4 Rocket 2.3 03:59:37 10° N 04:04:49 57° WNW 04:08:51 17° SW
IRS-1D 3.9 04:00:01 10° N 04:05:16 56° WNW 04:09:17 17° SW
Cosmos 2333 Rocket 2.8 04:02:12 10° NW 04:07:25 37° WSW 04:12:35 10° S
CZ-2D R/B 2.4 04:04:25 10° N 04:09:29 53° WNW 04:13:32 16° SW
Cosmos 1464 Rocket 4.1 04:07:51 10° NNW 04:13:51 54° W 04:19:46 10° SSW
ERBS 2.8 04:14:00 18° WSW 04:16:19 51° NW 04:19:39 10° NE
MOS 1 Rocket 3.6 04:12:35 10° NNE 04:17:39 85° ESE 04:22:56 10° SSW
ADEOS 4.0 04:14:23 10° N 04:19:23 46° WNW 04:23:41 14° SW
Cosmos 1666 Rocket 3.6 04:15:27 10° S 04:19:50 85° E 04:24:18 10° N
SL-8 R/B 3.9 04:15:43 12° WSW 04:20:04 72° NNW 04:24:53 10° ENE
ADEOS II 3.6 04:15:28 10° NNE 04:20:16 35° E 04:25:02 10° SSE
Cosmos 1241 Rocket 4.5 04:19:22 10° NW 04:25:50 73° WSW 04:32:06 10° SSE
Cosmos 1356 4.0 04:23:22 15° SW 04:25:57 42° WNW 04:29:19 10° N
Aureole 2 Rocket 3.7 04:22:35 10° NW 04:26:03 29° WSW 04:29:38 10° SSW
Cosmos 1980 4.3 04:21:11 10° NW 04:26:15 34° WSW 04:31:18 10° SSW
NOSS 7 (H) 4.3 04:23:54 16° SW 04:26:30 85° NW 04:29:55 10° NE
Cosmos 1626 3.3 04:24:34 15° SW 04:26:55 27° WNW 04:30:10 10° NNW
Cosmos 2297 Rocket 2.4 04:22:35 14° SW 04:27:30 61° WNW 04:33:07 10° NNE
SL-16 R/B 3.3 04:22:36 11° SSW 04:27:40 30° W 04:33:02 10° NW
GPS 2-04 Rocket1 4.0 04:28:39 14° SW 04:31:26 26° S 04:35:00 10° SE
Cosmos 2219 Rocket 3.6 04:29:36 10° WNW 04:33:23 19° W 04:37:09 10° SW
Okean O Rocket 2.9 04:30:04 10° NNE 04:34:10 38° E 04:38:13 10° SSE
Cosmos 1634 Rocket 4.5 04:28:15 10° N 04:34:26 66° E 04:40:33 10° SSE
GP-B 4.4 04:32:38 10° NNE 04:36:52 41° E 04:41:04 10° SSE
Cosmos 1805 Rocket 4.1 04:33:11 11° SSW 04:37:14 42° WNW 04:41:29 10° N
CZ-4B R/B 4.1 04:34:26 10° NNE 04:38:47 46° E 04:42:57 10° S
Cosmos 1850 Rocket 4.4 04:34:28 11° SW 04:39:16 48° WNW 04:44:17 10° N
CZ-3A R/B 2.7 04:39:40 10° NW 04:42:31 56° NE 04:51:41 10° ESE
SL-16 R/B 2.2 04:38:44 10° NNW 04:44:21 62° WSW 04:49:55 10° S
USA 161 1.9 04:44:12 10° SSW 04:45:59 24° W 04:47:42 10° NW
Cosmos 2237 Rocket 3.2 04:41:34 10° NW 04:46:06 25° WSW 04:50:36 10° SSW
CZ-4B R/B 4.2 04:41:38 10° NNE 04:46:44 46° E 04:51:50 10° S
Cosmos 1763 Rocket 4.4 04:42:29 10° NNW 04:47:41 55° ENE 04:52:46 10° SE
ISS -3.8 04:44:49 10° WNW 04:48:04 61° SW 04:51:17 10° SE
ARIANE 5 R/B 4.1 04:56:06 10° NNW 04:59:49 21° WNW 05:03:29 10° WSW
Cosmos 332 Rocket 3.9 04:55:04 10° NNW 04:59:55 89° ENE 05:04:47 10° SSE
